Enid, OK

5:53 PM CST on February 19, 2017 (GMT -0600)
Enid Woodring Municipal

Weather History for KWDG - November, 2012

Change the Weather History Date:

Sunday, November 18, 2012

  Actual Average Record
Temperature  
Mean Temperature 54 °F -  
Max Temperature 68 °F 56 °F 75 °F (2007)
Min Temperature 39 °F 39 °F 17 °F (2014)
Degree Days  
Heating Degree Days 12    
Growing Degree Days 4 (Base 50)    
Moisture  
Dew Point 37 °F    
Average Humidity 64    
Maximum Humidity 76    
Minimum Humidity 33    
Precipitation  
Precipitation 0.02 in - - ()
Sea Level Pressure  
Sea Level Pressure 30.14 in    
Wind  
Wind Speed 11 mph (SSE)    
Max Wind Speed 26 mph    
Max Gust Speed 34 mph    
Visibility 10 miles    
Events Rain    
Averages and records for this station are not official NWS values.
T = Trace of Precipitation, MM = Missing Value Source: NWS Daily Summary

Daily Weather History Graph

Daily Weather History Graph

Search for Another Location

Airport or City:

Trip Planner

Search our weather history database for the weather conditions in past years. The results will help you decide how hot, cold, wet, or windy it might be!

Date:

Astronomy

Nov. 18, 2012 Rise Set
Actual Time 7:12 AM CST 5:20 PM CST
Civil Twilight 6:44 AM CST 5:48 PM CST
Nautical Twilight 6:13 AM CST 6:19 PM CST
Astronomical Twilight 5:42 AM CST 6:50 PM CST
Moon 11:41 AM CST (11/18) 10:39 PM CST (11/18)
Length of Visible Light 11h 03m
Length of Day
10h 08m
Waxing Crescent, 30% of the Moon is Illuminated
Nov 18
Waxing Crescent
Nov 20
First Quarter
Nov 28
Full
Dec 6
Last Quarter
Dec 13
New

Hourly Weather History & Observations

Time (CST) Temp. Windchill Dew Point Humidity Pressure Visibility Wind Dir Wind Speed Gust Speed Precip Events Conditions
12:15 AM 42.8 °F 38.6 °F 32.0 °F 66% 30.22 in 10.0 mi SE 6.9 mph - N/A   Clear
12:35 AM 41.0 °F 35.2 °F 32.0 °F 70% 30.22 in 10.0 mi SE 9.2 mph - N/A   Clear
12:55 AM 41.0 °F 38.0 °F 32.0 °F 70% 30.22 in 10.0 mi SE 4.6 mph - N/A   Clear
1:15 AM 39.2 °F 35.0 °F 32.0 °F 75% 30.21 in 10.0 mi SSE 5.8 mph - N/A   Clear
1:35 AM 39.2 °F 35.0 °F 32.0 °F 75% 30.21 in 10.0 mi SSE 5.8 mph - N/A   Clear
1:55 AM 39.2 °F 34.2 °F 32.0 °F 75% 30.21 in 10.0 mi SSE 6.9 mph - N/A   Clear
2:15 AM 41.0 °F 36.4 °F 32.0 °F 70% 30.20 in 10.0 mi SSE 6.9 mph - N/A   Clear
2:35 AM 39.2 °F 33.6 °F 32.0 °F 75% 30.20 in 10.0 mi SE 8.1 mph - N/A   Clear
2:55 AM 41.0 °F 35.8 °F 32.0 °F 70% 30.19 in 10.0 mi SSE 8.1 mph - N/A   Clear
3:15 AM 41.0 °F 36.4 °F 32.0 °F 70% 30.19 in 10.0 mi SSE 6.9 mph - N/A   Clear
3:35 AM 41.0 °F 36.4 °F 32.0 °F 70% 30.19 in 10.0 mi SSE 6.9 mph - N/A   Clear
3:55 AM 41.0 °F 35.8 °F 32.0 °F 70% 30.18 in 10.0 mi SSE 8.1 mph - N/A   Clear
4:15 AM 41.0 °F 35.8 °F 32.0 °F 70% 30.18 in 10.0 mi SSE 8.1 mph - N/A   Clear
4:35 AM 41.0 °F 37.1 °F 32.0 °F 70% 30.17 in 10.0 mi South 5.8 mph - N/A   Clear
4:55 AM 41.0 °F 36.4 °F 32.0 °F 70% 30.17 in 10.0 mi South 6.9 mph - N/A   Clear
7:50 AM 42.8 °F 37.5 °F 35.6 °F 76% 30.18 in 10.0 mi SSE 9.2 mph - N/A   Mostly Cloudy
8:50 AM 51.8 °F - 35.6 °F 54% 30.18 in 10.0 mi South 19.6 mph - N/A   Mostly Cloudy
9:50 AM 57.2 °F - 35.6 °F 44% 30.17 in 10.0 mi South 20.7 mph 27.6 mph N/A   Mostly Cloudy
11:50 AM 64.4 °F - 35.6 °F 34% 30.13 in 10.0 mi South 25.3 mph 34.5 mph N/A   Mostly Cloudy
12:50 PM 64.4 °F - 35.6 °F 34% 30.10 in 10.0 mi South 25.3 mph 32.2 mph N/A   Mostly Cloudy
1:50 PM 64.4 °F - 37.4 °F 37% 30.08 in 10.0 mi South 24.2 mph 32.2 mph N/A   Mostly Cloudy
2:50 PM 68.0 °F - 37.4 °F 33% 30.06 in 10.0 mi South 26.5 mph 33.4 mph N/A   Mostly Cloudy
3:55 PM 66.2 °F - 37.4 °F 35% 30.07 in 10.0 mi South 24.2 mph 32.2 mph N/A   Mostly Cloudy
5:50 PM 59.0 °F - 39.2 °F 48% 30.08 in 10.0 mi SSE 15.0 mph - N/A   Mostly Cloudy
7:50 PM 59.0 °F - 39.2 °F 48% 30.09 in 10.0 mi South 18.4 mph 24.2 mph N/A   Mostly Cloudy
8:15 PM 59.0 °F - 39.2 °F 48% 30.10 in 10.0 mi South 16.1 mph - N/A Rain Light Rain
8:35 PM 55.4 °F - 41.0 °F 58% 30.10 in 10.0 mi South 15.0 mph - N/A Rain Rain
8:50 PM 55.4 °F - 42.8 °F 63% 30.09 in 10.0 mi SSE 16.1 mph - N/A Rain Light Rain
8:55 PM 53.6 °F - 44.6 °F 72% 30.09 in 10.0 mi SSE 17.3 mph - N/A Rain Rain
9:15 PM 51.8 °F - 44.6 °F 76% 30.10 in 10.0 mi South 12.7 mph - N/A Rain Light Rain
9:35 PM 51.8 °F - 44.6 °F 76% 30.10 in 10.0 mi South 13.8 mph - N/A Rain Light Rain
9:55 PM 51.8 °F - 44.6 °F 76% 30.11 in 10.0 mi South 12.7 mph - N/A   Drizzle
10:15 PM 51.8 °F - 44.6 °F 76% 30.11 in 10.0 mi South 12.7 mph - N/A Rain Rain
10:35 PM 51.8 °F - 44.6 °F 76% 30.10 in 10.0 mi SSE 13.8 mph - 0.02 in Rain Rain
11:15 PM 51.8 °F - 44.6 °F 76% 30.10 in 10.0 mi South 11.5 mph - N/A   Light Drizzle
11:35 PM 51.8 °F - 44.6 °F 76% 30.10 in 10.0 mi South 10.4 mph - N/A   Mostly Cloudy
11:55 PM 51.8 °F - 44.6 °F 76% 30.12 in 10.0 mi South 5.8 mph - N/A   Drizzle